Location: Chacón
(10.5789°N, 66.9317°W)
Time: 19:55:43
(UTC+00:00)

Sakura Rocket - Pass Details

Date: 19 August 2024
Orbit: 475 x 1710 km, 28.7° (Epoch: 09 September)

Event Time Altitude Azimuth Distance (km) Brightness Sun altitude
Rises 00:26:19 0° 281° (WNW) 3,004 7.9 -24.9°
Reaches altitude 10° 00:30:06 10° 310° (NW) 1,875 6.4 -25.8°
Maximum altitude 00:32:03 13° 338° (NNW) 1,610 5.7 -26.2°
Enters shadow 00:33:46 10° 5° (N) 1,701 5.5 -26.6°
